Home > Weather > Feldkirch > Past weeks

Flag for Austria Weather for the Past 2 Weeks in Feldkirch, Vorarlberg, Austria

Now
58 °F

Refreshingly cool.


Feels Like: 58 °F
Forecast: 42 / 75 °F
Wind: 1 mph from Northeast

Location: Feldkirch

Current Time: May 5, 2016 at 12:34:53 PM

Latest Report: May 5, 2016 at 12:00 PM


Visibility: N/A

Pressure: 30.13 "Hg

Humidity: 42%

Dew Point: 35 °F

Location of FeldkirchLocation

Historic Weather in Feldkirch — Graph

°F

Feldkirch Temperature Yesterday

Maximum temperature yesterday: 58 °F (at 4:00 PM)
Minimum temperature yesterday: 42 °F (at 6:00 AM)
Average temperature yesterday: 50 °F

High & Low Weather Summary for the Past Weeks

 TemperatureHumidityPressure
High68 °F (Apr 22, 3:00 PM)98% (May 4, 3:00 AM)30.35 "Hg (May 4, 3:00 AM)
Low33 °F (Apr 25, 2:00 AM)30% (Apr 28, 3:00 PM)29.65 "Hg (Apr 26, 3:00 PM)
Average49 °F72%30.04 "Hg
* Reported Apr 20 11:00 AM — May 5 11:00 AM, Feldkirch, Weather by CustomWeather, © 2016

Note: Actual official high and low records may vary slightly from our data, if they occured in-between our weather recording intervals... More about our weather records

Advertising

Feldkirch Weather History for the Previous 24 Hours

Scroll right to see more
 ConditionsComfort  
Time TempWeatherWind HumidityBarometerVisibility
11:00 AM
Thu, May 5
55 °FSunny.1 mph50%30.16 "Hg19 mi
10:00 AM52 °FCool.1 mph58%30.18 "HgN/A
9:00 AMN/APassing clouds.97 mphN/AN/A2 mi
8:00 AM40 °FQuite cool.1 mph77%30.25 "HgN/A
7:00 AM36 °FSunny.No wind91%30.28 "Hg19 mi
6:00 AM35 °FChilly.1 mph92%30.29 "HgN/A
5:00 AM37 °FChilly.No wind88%30.29 "HgN/A
4:00 AM38 °FChilly.1 mph83%30.29 "HgN/A
3:00 AM39 °FChilly.No wind84%30.29 "HgN/A
2:00 AM40 °FChilly.No wind84%30.29 "HgN/A
1:00 AM41 °FQuite cool.1 mph81%30.29 "HgN/A
12:00 AM43 °FQuite cool.1 mph77%30.30 "HgN/A
11:00 PM
Wed, May 4
46 °FCool.1 mph71%30.29 "HgN/A
10:00 PM48 °FCool.1 mph66%30.28 "HgN/A
9:00 PM50 °FCool.1 mph59%30.26 "HgN/A
8:00 PM55 °FCool.1 mph43%30.24 "HgN/A
7:00 PM57 °FRefreshingly cool.1 mph43%30.24 "HgN/A
6:00 PM57 °FRefreshingly cool.2 mph45%30.25 "HgN/A
5:00 PM56 °FRefreshingly cool.3 mph48%30.25 "HgN/A
4:00 PM58 °FRefreshingly cool.3 mph49%30.25 "HgN/A
3:00 PM56 °FRefreshingly cool.3 mph47%30.27 "HgN/A
2:00 PM56 °FRefreshingly cool.2 mph53%30.28 "HgN/A
1:00 PM55 °FCool.3 mph65%30.30 "HgN/A
12:00 PM55 °FCool.2 mph69%30.31 "HgN/A
Weather by CustomWeather, © 2016

See weather overviewHow to use our weather pages